| time (UTC) | temp F | wind direction | speed knots | gust knots | rain 1hr in | rain 24hr in | rain mn in | humidity % | barometer mb |
| 20260510113600 | 65 | 35 | 7.0 | 13.0 | 0.00 | 0.00 | 0.00 | 47 | 1013.3 |
| 20260510113351 | 66 | 35 | 7.8 | 13.0 | 0.00 | 0.00 | 0.00 | 46 | 1013.3 |
| 20260510112600 | 66 | 47 | 6.1 | 13.9 | 0.00 | 0.00 | 0.00 | 48 | 1013.4 |
| 20260510112118 | 65 | 27 | 7.8 | 14.8 | 0.00 | 0.00 | 0.00 | 49 | 1013.4 |
| 20260510111601 | 66 | 52 | 5.2 | 14.8 | 0.00 | 0.00 | 0.00 | 47 | 1013.5 |
| 20260510111347 | 66 | 48 | 7.8 | 14.8 | 0.00 | 0.00 | 0.00 | 48 | 1013.6 |
| 20260510110604 | 65 | 78 | 5.2 | 13.9 | 0.00 | 0.00 | 0.00 | 51 | 1013.7 |
| 20260510110115 | 65 | 35 | 5.2 | 13.9 | 0.00 | 0.00 | 0.00 | 48 | 1013.7 |
| 20260510105600 | 64 | 63 | 7.0 | 13.0 | 0.00 | 0.00 | 0.00 | 49 | 1013.8 |
| 20260510105102 | 64 | 52 | 8.7 | 13.0 | 0.00 | 0.00 | 0.00 | 49 | 1013.8 |
| 20260510104601 | 64 | 78 | 7.8 | 14.8 | 0.00 | 0.00 | 0.00 | 49 | 1013.8 |
| 20260510104100 | 64 | 39 | 7.8 | 14.8 | 0.00 | 0.00 | 0.00 | 51 | 1013.9 |
| 20260510103559 | 64 | 35 | 6.1 | 16.5 | 0.00 | 0.00 | 0.00 | 49 | 1014.0 |
| 20260510103100 | 64 | 32 | 7.0 | 16.5 | 0.00 | 0.00 | 0.00 | 48 | 1013.9 |
| 20260510102611 | 65 | 14 | 7.0 | 13.0 | 0.00 | 0.00 | 0.00 | 50 | 1013.9 |
| 20260510102059 | 64 | 39 | 7.8 | 13.0 | 0.00 | 0.00 | 0.00 | 49 | 1013.9 |
| 20260510101611 | 64 | 35 | 7.0 | 11.3 | 0.00 | 0.00 | 0.00 | 50 | 1014.1 |
| 20260510101424 | 64 | 30 | 6.1 | 15.6 | 0.00 | 0.00 | 0.00 | 51 | 1014.1 |
| 20260510100558 | 64 | 52 | 8.7 | 15.6 | 0.00 | 0.00 | 0.00 | 50 | 1014.3 |
| 20260510100109 | 64 | 17 | 9.6 | 13.9 | 0.00 | 0.00 | 0.00 | 51 | 1014.2 |
| 20260510095558 | 63 | 51 | 8.7 | 13.9 | 0.00 | 0.00 | 0.00 | 51 | 1014.4 |
| 20260510095402 | 62 | 39 | 4.3 | 13.0 | 0.00 | 0.00 | 0.00 | 52 | 1014.3 |
| 20260510094559 | 62 | 62 | 7.8 | 13.0 | 0.00 | 0.00 | 0.00 | 52 | 1014.3 |
| 20260510094343 | 63 | 34 | 7.0 | 14.8 | 0.00 | 0.00 | 0.00 | 52 | 1014.0 |
| 20260510093843 | 62 | 54 | 8.7 | 14.8 | 0.00 | 0.00 | 0.00 | 52 | 1013.9 |
| 20260510093059 | 62 | 52 | 5.2 | 13.9 | 0.00 | 0.00 | 0.00 | 53 | 1014.0 |
| 20260510092557 | 62 | 20 | 6.1 | 13.9 | 0.00 | 0.00 | 0.00 | 53 | 1013.8 |
| 20260510092059 | 62 | 8 | 5.2 | 15.6 | 0.00 | 0.00 | 0.00 | 54 | 1013.7 |
| 20260510091610 | 62 | 25 | 7.0 | 15.6 | 0.00 | 0.00 | 0.00 | 54 | 1013.6 |
| 20260510091101 | 62 | 38 | 8.7 | 13.0 | 0.00 | 0.00 | 0.00 | 53 | 1013.4 |
| 20260510090609 | 62 | 37 | 6.1 | 13.0 | 0.00 | 0.00 | 0.00 | 54 | 1013.3 |
| 20260510090109 | 61 | 20 | 6.1 | 13.9 | 0.00 | 0.00 | 0.00 | 56 | 1013.3 |
| 20260510085600 | 61 | 37 | 7.8 | 13.9 | 0.00 | 0.00 | 0.00 | 56 | 1013.2 |
| 20260510085057 | 61 | 41 | 7.8 | 13.9 | 0.00 | 0.00 | 0.00 | 56 | 1013.0 |
| 20260510084647 | 60 | 28 | 7.8 | 13.9 | 0.00 | 0.00 | 0.00 | 57 | 1012.8 |
| 20260510084628 | 61 | 27 | 6.1 | 13.9 | 0.00 | 0.00 | 0.00 | 57 | 1013.0 |
| 20260510083505 | 60 | 34 | 5.2 | 13.0 | 0.00 | 0.00 | 0.00 | 58 | 1012.7 |
| 20260510083252 | 60 | 39 | 7.8 | 12.2 | 0.00 | 0.00 | 0.00 | 58 | 1012.4 |
| 20260510082503 | 60 | 17 | 7.0 | 11.3 | 0.00 | 0.00 | 0.00 | 57 | 1012.3 |
| 20260510082005 | 60 | 1 | 7.0 | 12.2 | 0.00 | 0.00 | 0.00 | 58 | 1012.5 |
| 20260510081504 | 60 | 51 | 6.1 | 12.2 | 0.00 | 0.00 | 0.00 | 59 | 1012.9 |
| 20260510081005 | 60 | 35 | 7.0 | 12.2 | 0.00 | 0.00 | 0.00 | 58 | 1014.5 |
| 20260510080504 | 60 | 45 | 5.2 | 11.3 | 0.00 | 0.00 | 0.00 | 61 | 1014.6 |
| 20260510080005 | 59 | 47 | 5.2 | 13.0 | 0.00 | 0.00 | 0.00 | 61 | 1014.7 |
| 20260510075529 | 59 | 35 | 5.2 | 13.0 | 0.00 | 0.00 | 0.00 | 61 | 1014.6 |
| 20260510075250 | 59 | 31 | 7.0 | 13.0 | 0.00 | 0.00 | 0.00 | 61 | 1014.6 |
| 20260510074503 | 59 | 38 | 6.1 | 14.8 | 0.00 | 0.00 | 0.00 | 64 | 1014.8 |
| 20260510074005 | 58 | 27 | 7.0 | 14.8 | 0.00 | 0.00 | 0.00 | 64 | 1014.7 |
| 20260510073503 | 58 | 49 | 6.1 | 13.9 | 0.00 | 0.00 | 0.00 | 65 | 1014.8 |
| 20260510073003 | 58 | 55 | 5.2 | 13.9 | 0.00 | 0.00 | 0.00 | 66 | 1014.8 |
| 20260510072503 | 57 | 58 | 6.1 | 13.0 | 0.00 | 0.00 | 0.00 | 67 | 1014.9 |
| 20260510072004 | 57 | 48 | 6.1 | 13.9 | 0.00 | 0.00 | 0.00 | 66 | 1015.0 |
| 20260510071755 | 57 | 49 | 7.0 | 13.9 | 0.00 | 0.00 | 0.00 | 68 | 1014.9 |
| 20260510071003 | 56 | 32 | 5.2 | 12.2 | 0.00 | 0.00 | 0.00 | 69 | 1014.9 |
| 20260510070503 | 56 | 44 | 6.1 | 12.2 | 0.00 | 0.00 | 0.00 | 69 | 1015.0 |
| 20260510070004 | 56 | 35 | 5.2 | 15.6 | 0.00 | 0.00 | 0.00 | 69 | 1015.0 |
| 20260510065501 | 56 | 31 | 8.7 | 15.6 | 0.00 | 0.00 | 0.00 | 69 | 1015.0 |
| 20260510065003 | 56 | 28 | 7.0 | 13.0 | 0.00 | 0.00 | 0.00 | 70 | 1015.0 |
| 20260510064501 | 55 | 31 | 5.2 | 14.8 | 0.00 | 0.00 | 0.00 | 72 | 1015.0 |
| 20260510064306 | 54 | 34 | 7.0 | 11.3 | 0.00 | 0.00 | 0.00 | 75 | 1014.9 |
| 20260510064201 | 55 | 63 | 5.2 | 14.8 | 0.00 | 0.00 | 0.00 | 73 | 1014.9 |
| 20260510063935 | 55 | 39 | 6.1 | 11.3 | 0.00 | 0.00 | 0.00 | 74 | 1015.0 |
| 20260510062457 | 54 | 23 | 7.0 | 11.3 | 0.00 | 0.00 | 0.00 | 75 | 1015.1 |
| 20260510062011 | 54 | 1 | 5.2 | 11.3 | 0.00 | 0.00 | 0.00 | 77 | 1015.1 |
| 20260510061457 | 53 | 20 | 5.2 | 11.3 | 0.00 | 0.00 | 0.00 | 78 | 1015.0 |
| 20260510060958 | 53 | 14 | 4.3 | 11.3 | 0.00 | 0.00 | 0.00 | 80 | 1015.1 |
| 20260510060458 | 53 | 34 | 5.2 | 9.6 | 0.00 | 0.00 | 0.00 | 81 | 1015.1 |
| 20260510060251 | 52 | 13 | 5.2 | 9.6 | 0.00 | 0.00 | 0.00 | 82 | 1015.1 |
| 20260510055458 | 52 | 25 | 3.5 | 8.7 | 0.00 | 0.00 | 0.00 | 83 | 1015.0 |
| 20260510054956 | 51 | 34 | 4.3 | 11.3 | 0.00 | 0.00 | 0.00 | 83 | 1015.1 |
| 20260510054456 | 51 | 21 | 4.3 | 11.3 | 0.00 | 0.00 | 0.00 | 84 | 1015.0 |
| 20260510053955 | 51 | 38 | 4.3 | 9.6 | 0.00 | 0.00 | 0.00 | 85 | 1015.1 |
| 20260510053456 | 51 | 8 | 4.3 | 8.7 | 0.00 | 0.00 | 0.00 | 86 | 1015.0 |
| 20260510052957 | 50 | 24 | 3.5 | 8.7 | 0.00 | 0.00 | 0.00 | 86 | 1015.0 |
| 20260510052818 | 50 | 37 | 3.5 | 6.1 | 0.00 | 0.00 | 0.00 | 86 | 1015.0 |
| 20260510051957 | 50 | 31 | 3.5 | 6.1 | 0.00 | 0.00 | 0.00 | 86 | 1015.1 |
| 20260510051457 | 50 | 24 | 3.5 | 6.1 | 0.00 | 0.00 | 0.00 | 87 | 1015.0 |
| 20260510050957 | 50 | 25 | 3.5 | 6.1 | 0.00 | 0.00 | 0.00 | 86 | 1015.1 |
| 20260510050457 | 50 | 28 | 3.5 | 7.8 | 0.00 | 0.00 | 0.00 | 86 | 1015.1 |
| 20260510045957 | 50 | 27 | 3.5 | 7.8 | 0.00 | 0.00 | 0.00 | 86 | 1015.1 |
| 20260510045453 | 50 | 24 | 2.6 | 5.2 | 0.00 | 0.00 | 0.00 | 87 | 1015.1 |
| 20260510044953 | 50 | 24 | 2.6 | 5.2 | 0.00 | 0.00 | 0.00 | 87 | 1015.0 |
| 20260510044452 | 50 | 34 | 2.6 | 7.8 | 0.00 | 0.00 | 0.00 | 87 | 1015.1 |
| 20260510044242 | 50 | 32 | 2.6 | 7.8 | 0.00 | 0.00 | 0.00 | 87 | 1015.1 |
| 20260510043454 | 50 | 4 | 3.5 | 6.1 | 0.00 | 0.00 | 0.00 | 87 | 1015.0 |
| 20260510042952 | 50 | 35 | 3.5 | 6.1 | 0.00 | 0.00 | 0.00 | 87 | 1015.0 |
| 20260510042451 | 50 | 24 | 2.6 | 6.1 | 0.00 | 0.00 | 0.00 | 87 | 1015.0 |
| 20260510041951 | 50 | 10 | 3.5 | 5.2 | 0.00 | 0.00 | 0.00 | 87 | 1015.0 |
| 20260510041454 | 50 | 38 | 3.5 | 5.2 | 0.00 | 0.00 | 0.00 | 87 | 1014.9 |
| 20260510041242 | 50 | 18 | 3.5 | 4.3 | 0.00 | 0.00 | 0.00 | 87 | 1014.9 |
| 20260510040450 | 50 | 31 | 2.6 | 8.7 | 0.00 | 0.00 | 0.00 | 86 | 1015.0 |
| 20260510035950 | 50 | 34 | 3.5 | 8.7 | 0.00 | 0.00 | 0.00 | 87 | 1015.0 |
| 20260510035451 | 50 | 31 | 2.6 | 5.2 | 0.00 | 0.00 | 0.00 | 87 | 1015.0 |
| 20260510034952 | 50 | 10 | 3.5 | 6.1 | 0.00 | 0.00 | 0.00 | 86 | 1015.1 |
| 20260510034556 | 50 | 18 | 2.6 | 6.1 | 0.00 | 0.00 | 0.00 | 86 | 1015.1 |
| 20260510034528 | 50 | 32 | 3.5 | 6.1 | 0.00 | 0.00 | 0.00 | 86 | 1015.1 |
| 20260510033450 | 50 | 18 | 3.5 | 7.8 | 0.00 | 0.00 | 0.00 | 86 | 1015.2 |
| 20260510032950 | 50 | 20 | 2.6 | 7.8 | 0.00 | 0.00 | 0.00 | 85 | 1015.1 |
| 20260510032447 | 50 | 16 | 2.6 | 5.2 | 0.00 | 0.00 | 0.00 | 85 | 1015.2 |
| 20260510031946 | 50 | 17 | 2.6 | 5.2 | 0.00 | 0.00 | 0.00 | 85 | 1015.1 |
| 20260510031736 | 50 | 11 | 2.6 | 4.3 | 0.00 | 0.00 | 0.00 | 84 | 1015.2 |
| 20260510030945 | 50 | 31 | 1.7 | 4.3 | 0.00 | 0.00 | 0.00 | 84 | 1015.2 |
| 20260510030740 | 50 | 25 | 2.6 | 4.3 | 0.00 | 0.00 | 0.00 | 84 | 1015.2 |
| 20260510025945 | 50 | 24 | 2.6 | 4.3 | 0.00 | 0.00 | 0.00 | 84 | 1015.0 |
| 20260510025443 | 50 | 35 | 2.6 | 4.3 | 0.00 | 0.00 | 0.00 | 84 | 1015.0 |
| 20260510024942 | 50 | 59 | 2.6 | 4.3 | 0.00 | 0.00 | 0.00 | 84 | 1015.1 |
| 20260510024446 | 50 | 11 | 2.6 | 4.3 | 0.00 | 0.00 | 0.00 | 83 | 1015.1 |
| 20260510024001 | 50 | 16 | 1.7 | 5.2 | 0.00 | 0.00 | 0.00 | 83 | 1015.1 |
| 20260510023453 | 50 | 11 | 3.5 | 5.2 | 0.00 | 0.00 | 0.00 | 83 | 1015.3 |
| 20260510022940 | 50 | 13 | 1.7 | 5.2 | 0.00 | 0.00 | 0.00 | 82 | 1015.3 |
| 20260510022755 | 50 | 10 | 1.7 | 5.2 | 0.00 | 0.00 | 0.00 | 82 | 1015.3 |
| 20260510021939 | 50 | 28 | 1.7 | 4.3 | 0.00 | 0.00 | 0.00 | 82 | 1015.2 |
| 20260510021439 | 50 | 21 | 1.7 | 4.3 | 0.00 | 0.00 | 0.00 | 82 | 1015.2 |
| 20260510020938 | 50 | 41 | 1.7 | 5.2 | 0.00 | 0.00 | 0.00 | 82 | 1015.2 |
| 20260510020439 | 51 | 20 | 2.6 | 5.2 | 0.00 | 0.00 | 0.00 | 82 | 1015.3 |
| 20260510015938 | 51 | 27 | 2.6 | 4.3 | 0.00 | 0.00 | 0.00 | 81 | 1015.3 |
| 20260510015730 | 51 | 21 | 2.6 | 7.8 | 0.00 | 0.00 | 0.00 | 81 | 1015.4 |
| 20260510014943 | 51 | 30 | 3.5 | 8.7 | 0.00 | 0.00 | 0.00 | 81 | 1015.4 |
| 20260510014450 | 51 | 11 | 5.2 | 8.7 | 0.00 | 0.00 | 0.00 | 81 | 1015.3 |
| 20260510013938 | 51 | 18 | 5.2 | 8.7 | 0.00 | 0.00 | 0.00 | 81 | 1015.4 |
| 20260510013743 | 51 | 23 | 5.2 | 8.7 | 0.00 | 0.00 | 0.00 | 81 | 1015.4 |
| 20260510012937 | 51 | 10 | 6.1 | 7.8 | 0.00 | 0.00 | 0.00 | 81 | 1015.5 |
| 20260510012748 | 50 | 14 | 4.3 | 5.2 | 0.00 | 0.00 | 0.00 | 81 | 1015.5 |
| 20260510012004 | 50 | 13 | 4.3 | 5.2 | 0.00 | 0.00 | 0.00 | 81 | 1015.7 |
| 20260510011438 | 50 | 16 | 3.5 | 4.3 | 0.00 | 0.00 | 0.00 | 80 | 1015.7 |
| 20260510010932 | 51 | 8 | 1.7 | 4.3 | 0.00 | 0.00 | 0.00 | 80 | 1015.6 |
| 20260510010433 | 51 | 16 | 1.7 | 3.5 | 0.00 | 0.00 | 0.00 | 79 | 1015.5 |
| 20260510005934 | 51 | 13 | 1.7 | 4.3 | 0.00 | 0.00 | 0.00 | 79 | 1015.5 |
| 20260510005720 | 51 | 13 | 1.7 | 5.2 | 0.00 | 0.00 | 0.00 | 79 | 1015.5 |
| 20260510005216 | 51 | 10 | 3.5 | 5.2 | 0.00 | 0.00 | 0.00 | 79 | 1015.7 |
| 20260510004431 | 51 | 13 | 3.5 | 5.2 | 0.00 | 0.00 | 0.00 | 79 | 1015.7 |
| 20260510003931 | 51 | 3 | 3.5 | 5.2 | 0.00 | 0.00 | 0.00 | 78 | 1015.8 |
| 20260510003758 | 51 | 18 | 1.7 | 4.3 | 0.00 | 0.00 | 0.00 | 78 | 1015.7 |
| 20260510002931 | 51 | 10 | 2.6 | 4.3 | 0.00 | 0.00 | 0.00 | 78 | 1015.7 |
| 20260510002723 | 51 | 13 | 3.5 | 4.3 | 0.00 | 0.00 | 0.00 | 77 | 1015.7 |
| 20260510001934 | 51 | 7 | 2.6 | 5.2 | 0.00 | 0.00 | 0.00 | 77 | 1015.7 |
| 20260510001430 | 51 | 11 | 2.6 | 5.2 | 0.00 | 0.00 | 0.00 | 77 | 1015.8 |
| 20260510001215 | 51 | 16 | 3.5 | 5.2 | 0.00 | 0.00 | 0.00 | 76 | 1015.8 |
| 20260510000430 | 51 | 18 | 3.5 | 5.2 | 0.00 | 0.00 | 0.00 | 76 | 1015.8 |
| 20260509235931 | 52 | 14 | 3.5 | 5.2 | 0.00 | 0.00 | 0.00 | 75 | 1015.8 |
| 20260509235542 | 52 | 14 | 5.2 | 6.1 | 0.00 | 0.00 | 0.00 | 75 | 1016.0 |
| 20260509235518 | 52 | 16 | 3.5 | 6.1 | 0.00 | 0.00 | 0.00 | 75 | 1015.9 |
| 20260509234719 | 52 | 13 | 4.3 | 6.1 | 0.00 | 0.00 | 0.00 | 75 | 1016.0 |
| 20260509233932 | 52 | 14 | 3.5 | 5.2 | 0.00 | 0.00 | 0.00 | 75 | 1015.9 |
| 20260509233431 | 52 | 8 | 1.7 | 4.3 | 0.00 | 0.00 | 0.00 | 74 | 1016.0 |
| 20260509233218 | 52 | 14 | 2.6 | 4.3 | 0.00 | 0.00 | 0.00 | 74 | 1015.9 |
| 20260509232714 | 52 | 14 | 2.6 | 5.2 | 0.00 | 0.00 | 0.00 | 73 | 1016.0 |
| 20260509231929 | 52 | 13 | 2.6 | 5.2 | 0.00 | 0.00 | 0.00 | 73 | 1015.9 |
| 20260509231430 | 52 | 16 | 3.5 | 5.2 | 0.00 | 0.00 | 0.00 | 73 | 1016.0 |
| 20260509230946 | 52 | 11 | 3.5 | 5.2 | 0.00 | 0.00 | 0.00 | 72 | 1015.9 |
| 20260509230432 | 52 | 14 | 3.5 | 5.2 | 0.00 | 0.00 | 0.00 | 72 | 1016.0 |
| 20260509225929 | 52 | 13 | 2.6 | 4.3 | 0.00 | 0.00 | 0.00 | 72 | 1016.1 |
| 20260509225430 | 52 | 11 | 2.6 | 4.3 | 0.00 | 0.00 | 0.00 | 72 | 1016.1 |
| 20260509224931 | 53 | 13 | 2.6 | 3.5 | 0.00 | 0.00 | 0.00 | 72 | 1016.1 |
| 20260509224536 | 53 | 8 | 1.7 | 3.5 | 0.00 | 0.00 | 0.00 | 71 | 1016.1 |
| 20260509224507 | 53 | 10 | 1.7 | 3.5 | 0.00 | 0.00 | 0.00 | 71 | 1016.1 |
| 20260509223434 | 53 | 1 | 2.6 | 3.5 | 0.00 | 0.00 | 0.00 | 70 | 1016.1 |
| 20260509222932 | 53 | 10 | 1.7 | 3.5 | 0.00 | 0.00 | 0.00 | 70 | 1016.2 |
| 20260509222431 | 54 | 10 | 2.6 | 3.5 | 0.00 | 0.00 | 0.00 | 69 | 1016.2 |
| 20260509222252 | 54 | 8 | 1.7 | 3.5 | 0.00 | 0.00 | 0.00 | 69 | 1016.2 |
| 20260509221954 | 54 | 3 | 2.6 | 3.5 | 0.00 | 0.00 | 0.00 | 69 | 1016.2 |
| 20260509220931 | 54 | 20 | 1.7 | 3.5 | 0.00 | 0.00 | 0.00 | 69 | 1016.3 |
| 20260509220430 | 54 | 31 | 1.7 | 2.6 | 0.00 | 0.00 | 0.00 | 69 | 1016.2 |
| 20260509220100 | 55 | 13 | 2.6 | 5.2 | 0.00 | 0.00 | 0.00 | 68 | 1016.2 |
| 20260509220021 | 54 | 16 | 1.7 | 5.2 | 0.00 | 0.00 | 0.00 | 68 | 1016.1 |
| 20260509214929 | 55 | 10 | 4.3 | 5.2 | 0.00 | 0.00 | 0.00 | 68 | 1016.1 |
| 20260509214431 | 55 | 16 | 1.7 | 3.5 | 0.00 | 0.00 | 0.00 | 68 | 1016.1 |
| 20260509213945 | 55 | 25 | 1.7 | 2.6 | 0.00 | 0.00 | 0.00 | 67 | 1016.0 |
| 20260509213435 | 55 | 25 | 1.7 | 3.5 | 0.00 | 0.00 | 0.00 | 67 | 1016.1 |
| 20260509212930 | 55 | 20 | 1.7 | 4.3 | 0.00 | 0.00 | 0.00 | 66 | 1016.1 |
| 20260509212736 | 56 | 13 | 2.6 | 4.3 | 0.00 | 0.00 | 0.00 | 66 | 1016.0 |
| 20260509211930 | 56 | 17 | 1.7 | 3.5 | 0.00 | 0.00 | 0.00 | 66 | 1016.0 |
| 20260509211704 | 56 | 16 | 1.7 | 3.5 | 0.00 | 0.00 | 0.00 | 65 | 1016.1 |
| 20260509210930 | 56 | 16 | 1.7 | 3.5 | 0.00 | 0.00 | 0.00 | 64 | 1016.0 |
| 20260509210715 | 57 | 30 | 1.7 | 3.5 | 0.00 | 0.00 | 0.00 | 63 | 1016.1 |
| 20260509205929 | 57 | 38 | 1.7 | 4.3 | 0.00 | 0.00 | 0.00 | 63 | 1016.1 |
| 20260509205713 | 57 | 31 | 1.7 | 4.3 | 0.00 | 0.00 | 0.00 | 62 | 1016.2 |
| 20260509205217 | 58 | 32 | 2.6 | 4.3 | 0.00 | 0.00 | 0.00 | 61 | 1016.2 |
| 20260509204431 | 58 | 54 | 1.7 | 4.3 | 0.00 | 0.00 | 0.00 | 61 | 1016.1 |
| 20260509204222 | 58 | 38 | 2.6 | 4.3 | 0.00 | 0.00 | 0.00 | 61 | 1016.2 |
| 20260509203429 | 58 | 28 | 2.6 | 4.3 | 0.00 | 0.00 | 0.00 | 61 | 1016.3 |
| 20260509202930 | 58 | 28 | 1.7 | 4.3 | 0.00 | 0.00 | 0.00 | 61 | 1016.2 |
| 20260509202430 | 58 | 39 | 1.7 | 5.2 | 0.00 | 0.00 | 0.00 | 60 | 1016.3 |
| 20260509202211 | 58 | 51 | 2.6 | 5.2 | 0.00 | 0.00 | 0.00 | 60 | 1016.2 |
| 20260509201443 | 59 | 18 | 1.7 | 4.3 | 0.00 | 0.00 | 0.00 | 59 | 1016.2 |
| 20260509200943 | 59 | 23 | 2.6 | 4.3 | 0.00 | 0.00 | 0.00 | 58 | 1016.3 |
| 20260509200430 | 60 | 47 | 2.6 | 4.3 | 0.00 | 0.00 | 0.00 | 57 | 1016.1 |
| 20260509195930 | 60 | 39 | 3.5 | 6.1 | 0.00 | 0.00 | 0.00 | 56 | 1016.0 |
| 20260509195429 | 60 | 34 | 3.5 | 6.1 | 0.00 | 0.00 | 0.00 | 56 | 1016.0 |
| 20260509194931 | 60 | 44 | 3.5 | 6.1 | 0.00 | 0.00 | 0.00 | 56 | 1016.1 |
| 20260509194431 | 60 | 30 | 2.6 | 6.1 | 0.00 | 0.00 | 0.00 | 56 | 1016.0 |
| 20260509193931 | 61 | 28 | 3.5 | 6.1 | 0.00 | 0.00 | 0.00 | 55 | 1016.1 |
| 20260509193430 | 61 | 17 | 3.5 | 6.1 | 0.00 | 0.00 | 0.00 | 55 | 1016.2 |
| 20260509192930 | 61 | 23 | 3.5 | 8.7 | 0.00 | 0.00 | 0.00 | 55 | 1016.1 |
| 20260509192429 | 61 | 24 | 2.6 | 8.7 | 0.00 | 0.00 | 0.00 | 55 | 1016.1 |
| 20260509191930 | 62 | 31 | 3.5 | 6.1 | 0.00 | 0.00 | 0.00 | 54 | 1016.0 |
| 20260509191430 | 62 | 25 | 2.6 | 7.8 | 0.00 | 0.00 | 0.00 | 54 | 1016.0 |
| 20260509190930 | 62 | 32 | 3.5 | 7.8 | 0.00 | 0.00 | 0.00 | 54 | 1015.9 |
| 20260509190733 | 62 | 0 | 4.3 | 6.1 | 0.00 | 0.00 | 0.00 | 53 | 1015.9 |
| 20260509185930 | 63 | 27 | 2.6 | 4.3 | 0.00 | 0.00 | 0.00 | 53 | 1015.9 |
| 20260509185430 | 63 | 37 | 1.7 | 4.3 | 0.00 | 0.00 | 0.00 | 53 | 1015.9 |
| 20260509184937 | 64 | 20 | 1.7 | 4.3 | 0.00 | 0.00 | 0.00 | 53 | 1015.8 |
| 20260509184431 | 64 | 16 | 1.7 | 4.3 | 0.00 | 0.00 | 0.00 | 52 | 1015.9 |
| 20260509183930 | 64 | 17 | 2.6 | 6.1 | 0.00 | 0.00 | 0.00 | 51 | 1015.8 |
| 20260509183431 | 65 | 0 | 3.5 | 6.1 | 0.00 | 0.00 | 0.00 | 51 | 1015.9 |
| 20260509182930 | 65 | 16 | 4.3 | 6.1 | 0.00 | 0.00 | 0.00 | 50 | 1015.7 |
| 20260509182439 | 65 | 27 | 2.6 | 4.3 | 0.00 | 0.00 | 0.00 | 50 | 1015.7 |
| 20260509181930 | 65 | 34 | 2.6 | 7.8 | 0.00 | 0.00 | 0.00 | 49 | 1015.6 |
| 20260509181431 | 65 | 10 | 3.5 | 7.8 | 0.00 | 0.00 | 0.00 | 48 | 1015.5 |
| 20260509181205 | 66 | 30 | 1.7 | 6.1 | 0.00 | 0.00 | 0.00 | 48 | 1015.7 |
| 20260509180431 | 66 | 34 | 1.7 | 7.8 | 0.00 | 0.00 | 0.00 | 48 | 1015.5 |
| 20260509180236 | 66 | 7 | 3.5 | 7.8 | 0.00 | 0.00 | 0.00 | 48 | 1015.5 |
| 20260509175431 | 66 | 37 | 3.5 | 5.2 | 0.00 | 0.00 | 0.00 | 48 | 1015.3 |
| 20260509174930 | 67 | 38 | 2.6 | 5.2 | 0.00 | 0.00 | 0.00 | 46 | 1015.3 |
| 20260509174432 | 67 | 28 | 2.6 | 5.2 | 0.00 | 0.00 | 0.00 | 46 | 1015.3 |
| 20260509173931 | 67 | 20 | 2.6 | 7.8 | 0.00 | 0.00 | 0.00 | 46 | 1015.3 |
| 20260509173430 | 67 | 14 | 2.6 | 7.8 | 0.00 | 0.00 | 0.00 | 46 | 1015.4 |
| 20260509172931 | 67 | 42 | 3.5 | 7.8 | 0.00 | 0.00 | 0.00 | 45 | 1015.3 |
| 20260509172431 | 67 | 38 | 2.6 | 7.8 | 0.00 | 0.00 | 0.00 | 46 | 1015.4 |
| 20260509171930 | 67 | 32 | 3.5 | 6.1 | 0.00 | 0.00 | 0.00 | 45 | 1015.4 |
| 20260509171715 | 67 | 13 | 2.6 | 7.8 | 0.00 | 0.00 | 0.00 | 44 | 1015.3 |
| 20260509170931 | 68 | 37 | 3.5 | 7.8 | 0.00 | 0.00 | 0.00 | 44 | 1015.2 |
| 20260509170436 | 68 | 34 | 3.5 | 9.6 | 0.00 | 0.00 | 0.00 | 43 | 1015.3 |
| 20260509165931 | 68 | 52 | 6.1 | 9.6 | 0.00 | 0.00 | 0.00 | 44 | 1015.4 |
| 20260509165432 | 68 | 48 | 6.1 | 9.6 | 0.00 | 0.00 | 0.00 | 43 | 1015.5 |
| 20260509164947 | 68 | 41 | 3.5 | 9.6 | 0.00 | 0.00 | 0.00 | 44 | 1015.3 |
| 20260509164748 | 68 | 23 | 2.6 | 6.1 | 0.00 | 0.00 | 0.00 | 44 | 1015.4 |
| 20260509163932 | 68 | 55 | 3.5 | 6.1 | 0.00 | 0.00 | 0.00 | 43 | 1015.4 |
| 20260509163439 | 69 | 58 | 4.3 | 9.6 | 0.00 | 0.00 | 0.00 | 43 | 1015.5 |
| 20260509163212 | 69 | 55 | 3.5 | 9.6 | 0.00 | 0.00 | 0.00 | 42 | 1015.6 |
| 20260509162430 | 69 | 102 | 3.5 | 8.7 | 0.00 | 0.00 | 0.00 | 45 | 1015.5 |
| 20260509161931 | 69 | 37 | 4.3 | 8.7 | 0.00 | 0.00 | 0.00 | 42 | 1015.4 |
| 20260509161429 | 69 | 10 | 5.2 | 8.7 | 0.00 | 0.00 | 0.00 | 43 | 1015.3 |
| 20260509160930 | 70 | 21 | 4.3 | 8.7 | 0.00 | 0.00 | 0.00 | 43 | 1015.4 |
| 20260509160430 | 69 | 0 | 4.3 | 6.1 | 0.00 | 0.00 | 0.00 | 43 | 1015.3 |
| 20260509155930 | 70 | 331 | 2.6 | 5.2 | 0.00 | 0.00 | 0.00 | 43 | 1015.4 |
| 20260509155820 | 70 | 4 | 3.5 | 6.1 | 0.00 | 0.00 | 0.00 | 41 | 1015.5 |
| 20260509155800 | 70 | 78 | 1.7 | 6.1 | 0.00 | 0.00 | 0.00 | 43 | 1015.5 |
| 20260509154430 | 70 | 87 | 1.7 | 4.3 | 0.00 | 0.00 | 0.00 | 42 | 1015.5 |
| 20260509153935 | 70 | 96 | 3.5 | 6.1 | 0.00 | 0.00 | 0.00 | 42 | 1015.5 |
| 20260509153430 | 70 | 79 | 2.6 | 6.1 | 0.00 | 0.00 | 0.00 | 41 | 1015.5 |
| 20260509152930 | 70 | 48 | 3.5 | 6.1 | 0.00 | 0.00 | 0.00 | 41 | 1015.6 |
| 20260509152436 | 70 | 39 | 2.6 | 3.5 | 0.00 | 0.00 | 0.00 | 43 | 1015.7 |
| 20260509152234 | 70 | 138 | 0.0 | 5.2 | 0.00 | 0.00 | 0.00 | 42 | 1015.7 |
| 20260509151508 | 70 | 31 | 3.5 | 8.7 | 0.00 | 0.00 | 0.00 | 44 | 1015.6 |
| 20260509151452 | 70 | 76 | 2.6 | 8.7 | 0.00 | 0.00 | 0.00 | 44 | 1015.7 |
| 20260509150429 | 70 | 20 | 4.3 | 8.7 | 0.00 | 0.00 | 0.00 | 44 | 1015.8 |
| 20260509145931 | 70 | 13 | 3.5 | 9.6 | 0.00 | 0.00 | 0.00 | 43 | 1015.7 |
| 20260509145431 | 70 | 52 | 6.1 | 9.6 | 0.00 | 0.00 | 0.00 | 44 | 1015.8 |
| 20260509144932 | 71 | 8 | 4.3 | 8.7 | 0.00 | 0.00 | 0.00 | 42 | 1015.7 |
| 20260509144431 | 71 | 103 | 3.5 | 5.2 | 0.00 | 0.00 | 0.00 | 41 | 1015.8 |
| 20260509143930 | 70 | 51 | 3.5 | 5.2 | 0.00 | 0.00 | 0.00 | 41 | 1015.8 |
| 20260509143740 | 70 | 56 | 1.7 | 4.3 | 0.00 | 0.00 | 0.00 | 40 | 1015.9 |
| 20260509142946 | 71 | 317 | 2.6 | 6.1 | 0.00 | 0.00 | 0.00 | 42 | 1016.0 |
| 20260509142431 | 70 | 341 | 3.5 | 6.1 | 0.00 | 0.00 | 0.00 | 45 | 1016.0 |
| 20260509141929 | 70 | 21 | 3.5 | 5.2 | 0.00 | 0.00 | 0.00 | 44 | 1016.0 |
| 20260509141431 | 69 | 357 | 2.6 | 6.1 | 0.00 | 0.00 | 0.00 | 47 | 1016.0 |
| 20260509140931 | 69 | 47 | 2.6 | 7.8 | 0.00 | 0.00 | 0.00 | 45 | 1016.1 |
| 20260509140430 | 68 | 45 | 3.5 | 7.8 | 0.00 | 0.00 | 0.00 | 45 | 1016.2 |
| 20260509135929 | 68 | 63 | 2.6 | 7.8 | 0.00 | 0.00 | 0.00 | 44 | 1016.3 |
| 20260509135430 | 69 | 10 | 2.6 | 6.1 | 0.00 | 0.00 | 0.00 | 43 | 1016.1 |
| 20260509134930 | 70 | 39 | 3.5 | 6.1 | 0.00 | 0.00 | 0.00 | 42 | 1016.2 |
| 20260509134441 | 71 | 32 | 2.6 | 6.1 | 0.00 | 0.00 | 0.00 | 43 | 1016.2 |
| 20260509133937 | 70 | 94 | 1.7 | 6.1 | 0.00 | 0.00 | 0.00 | 40 | 1016.4 |
| 20260509133432 | 70 | 27 | 3.5 | 6.1 | 0.00 | 0.00 | 0.00 | 42 | 1016.4 |
| 20260509132933 | 70 | 31 | 3.5 | 6.1 | 0.00 | 0.00 | 0.00 | 43 | 1016.6 |
| 20260509132429 | 70 | 41 | 2.6 | 3.5 | 0.00 | 0.00 | 0.00 | 42 | 1016.5 |
| 20260509131930 | 69 | 35 | 0.0 | 3.5 | 0.00 | 0.00 | 0.00 | 44 | 1016.7 |
| 20260509131431 | 69 | 345 | 1.7 | 3.5 | 0.00 | 0.00 | 0.00 | 44 | 1016.8 |
| 20260509130929 | 69 | 343 | 2.6 | 5.2 | 0.00 | 0.00 | 0.00 | 44 | 1016.8 |
| 20260509130429 | 68 | 17 | 3.5 | 6.1 | 0.00 | 0.00 | 0.00 | 45 | 1017.0 |
| 20260509130008 | 68 | 18 | 1.7 | 8.7 | 0.00 | 0.00 | 0.00 | 43 | 1017.0 |
| 20260509125428 | 69 | 32 | 4.3 | 8.7 | 0.00 | 0.00 | 0.00 | 45 | 1017.0 |
| 20260509124929 | 70 | 23 | 4.3 | 7.8 | 0.00 | 0.00 | 0.00 | 44 | 1017.0 |
| 20260509124428 | 69 | 90 | 2.6 | 6.1 | 0.00 | 0.00 | 0.00 | 45 | 1017.0 |
| 20260509123930 | 69 | 32 | 4.3 | 6.1 | 0.00 | 0.00 | 0.00 | 47 | 1017.1 |
| 20260509123428 | 68 | 114 | 0.9 | 7.8 | 0.00 | 0.00 | 0.00 | 43 | 1017.0 |
| 20260509123222 | 68 | 82 | 2.6 | 7.8 | 0.00 | 0.00 | 0.00 | 45 | 1017.1 |
| 20260509122428 | 69 | 45 | 3.5 | 7.8 | 0.00 | 0.00 | 0.00 | 45 | 1017.2 |
| 20260509121939 | 69 | 123 | 4.3 | 7.8 | 0.00 | 0.00 | 0.00 | 43 | 1017.2 |
| 20260509121715 | 69 | 138 | 3.5 | 8.7 | 0.00 | 0.00 | 0.00 | 46 | 1017.4 |
| 20260509120938 | 68 | 54 | 3.5 | 8.7 | 0.00 | 0.00 | 0.00 | 44 | 1017.4 |
| 20260509120424 | 67 | 21 | 2.6 | 7.8 | 0.00 | 0.00 | 0.00 | 49 | 1017.4 |
| 20260509120220 | 66 | 23 | 3.5 | 7.8 | 0.00 | 0.00 | 0.00 | 49 | 1017.4 |
| 20260509115423 | 66 | 3 | 1.7 | 6.1 | 0.00 | 0.00 | 0.00 | 46 | 1017.4 |
| 20260509114924 | 66 | 0 | 3.5 | 7.8 | 0.00 | 0.00 | 0.00 | 48 | 1017.5 |
| 20260509114422 | 67 | 72 | 2.6 | 8.7 | 0.00 | 0.00 | 0.00 | 47 | 1017.5 |
| 20260509113924 | 68 | 44 | 4.3 | 10.4 | 0.00 | 0.00 | 0.00 | 44 | 1017.5 |